STARLINK-32864, 62862

Orbit data source: Space-Track

STARLINK-32864, 62862 is a payload satellite owned by SpaceX/Seattle (US) in LEO that was launched on Sat, 01 Feb 2025 UTC via an FALCON 9 launch vehicle from the Air Force Western Test Range (AFWTR). Payload-class satellites include a variety of spacecraft equipped with specific instruments for various scientific and technological missions. These include communications satellites like Starlink; space stations such as the ISS; scientific satellites like the Hubble; Earth observation satellites from companies like Planet Labs, Umbra, and HawkEye 360; GPS; miniature CubeSats for education and research; and military/defense satellites.

Loading next visibility...
Identifier
62862, 2025-022J
Orbit
LEO
Last TLE update
13 hours ago
Origin
Manufacturer
SpaceX/Seattle
Mission
Operational Commercial Communications
Bus & Motor
STARLINK V2M, Unknown motor
Mass
730 kg wet, ~700 kg dry
Launch date (UTC)
2025-02-01 (5 months ago)
Launch vehicle
FALCON 9
Launch site
Air Force Western Test Range (AFWTR)
Object type
Payload
Rocket body
Debris
Shape & HBR
Box + 2 Pan, 29 m
Radar Cross Section
33.884 m², Large (>1 m²)

Expand to show TLE details & history

TLE from 13 hours ago
0 STARLINK-32864
1 62862U 25022J   25181.82575535  .00025748  00000-0  65116-3 0  9990
2 62862  53.1569 219.8412 0001379  90.0501 270.0662 15.39636336 23336
Epoch: 2025-06-30T19:49Z
TLE epoch observation values (Epoch: 2025-06-30T19:49:05.262Z)
Latitude
Longitude
3.43928°
Altitude
448.086 km
Speed
7.645 km/s
True Right ascension
14h 39m 21s
True Declination
0° 00' 00"
Sunlit
Object was in full shadow at epoch
Visualization orbit readout
Latitude
50.40744°
Longitude
65.20854°
Altitude
452.117 km
Speed
7.648 km/s
Apparent Right ascension
12h 23m 37s
Apparent Declination
32° 26' 47"
Sunlit
Object is in daylight
Visualization observer readout
Local Sidereal Time
20:14:11
Azimuth
311.556° NW
Elevation
2.52°
Doppler factor
1
Orbital elements
Apogee altitude
448.383 km
Perigee altitude
446.501 km
Semi-major axis
6,825.579 km
Eccentricity
0.00014
Inclination
53.1569°
RAAN
219.8412°
Arg. of periapsis
90.0501°
True anomaly
Unknown
Mean anomaly
270.0662°
Eccentric anomaly
Unknown
Mean motion
3.84888 °/min
Orbital period
93.53 mins
BSTAR
0.00065116
Loading maneuver chart data...
Loading SW <> Apogee altitude chart data...
Loading historical data...
Loading historical data...
Loading historical data...
Loading historical data...
Loading historical data...
Loading historical data...
Loading historical data...

STARLINK-32864 Visibility forecast

Observer location: undefined°, undefined°

Span
Click to sort rows by Start time (UTC) header in descending order
Start Az.
Max El. time (UTC)
Max El. Az.
Max El.
End time (UTC)
End Az.
5 mins2025-07-01 11:54:02.944Z322.2° NNW2025-07-01 11:56:02.944Z37.025° NE41.382°2025-07-01 11:59:02.944Z118.039° SE
5 mins2025-07-02 04:43:02.944Z205.445° SW2025-07-02 04:45:02.944Z134.148° SE38.816°2025-07-02 04:48:02.944Z59.847° ENE
4 mins2025-07-02 06:21:02.944Z298.535° NW2025-07-02 06:22:02.944Z321.008° NNW20.222°2025-07-02 06:25:02.944Z24.056° NE
|